TimeCDT,TemperatureF,Dew PointF,Humidity,Sea Level PressureIn,VisibilityMPH,Wind Direction,Wind SpeedMPH,Gust SpeedMPH,PrecipitationIn,Events,Conditions,WindDirDegrees,DateUTC
12:53 AM,73.0,66.9,81,30.03,10.0,SSE,4.6,-,N/A,,Clear,150,2013-08-28 05:53:00
1:53 AM,72.0,66.9,84,30.03,10.0,SSE,8.1,-,N/A,,Clear,160,2013-08-28 06:53:00
2:53 AM,72.0,66.9,84,30.02,10.0,South,5.8,-,N/A,,Clear,170,2013-08-28 07:53:00
3:53 AM,71.1,66.0,84,30.01,10.0,North,-9999.0,-,N/A,,Clear,0,2013-08-28 08:53:00
4:53 AM,71.1,66.0,84,30.02,10.0,SSW,4.6,-,N/A,,Clear,210,2013-08-28 09:53:00
5:53 AM,70.0,64.9,84,30.03,10.0,South,5.8,-,N/A,,Clear,190,2013-08-28 10:53:00
6:53 AM,70.0,64.9,84,30.04,10.0,South,4.6,-,N/A,,Clear,170,2013-08-28 11:53:00
7:53 AM,73.9,66.9,79,30.05,10.0,South,5.8,-,N/A,,Clear,180,2013-08-28 12:53:00
8:53 AM,80.1,68.0,67,30.06,10.0,SSW,6.9,-,N/A,,Clear,200,2013-08-28 13:53:00
9:53 AM,84.0,68.0,58,30.06,10.0,SSW,9.2,-,N/A,,Clear,210,2013-08-28 14:53:00
10:53 AM,87.1,69.1,55,30.07,10.0,SSW,10.4,-,N/A,,Clear,200,2013-08-28 15:53:00
11:53 AM,88.0,68.0,51,30.07,10.0,SSW,11.5,-,N/A,,Clear,210,2013-08-28 16:53:00
12:53 PM,90.0,66.9,46,30.05,10.0,SW,10.4,-,N/A,,Clear,220,2013-08-28 17:53:00
1:53 PM,91.0,68.0,47,30.04,10.0,WSW,4.6,-,N/A,,Partly Cloudy,250,2013-08-28 18:53:00
2:53 PM,91.0,68.0,47,30.03,10.0,South,13.8,18.4,N/A,,Partly Cloudy,190,2013-08-28 19:53:00
3:53 PM,91.0,68.0,47,30.01,10.0,SW,8.1,18.4,N/A,,Scattered Clouds,220,2013-08-28 20:53:00
4:53 PM,91.0,68.0,47,30.01,10.0,SSW,9.2,-,N/A,,Scattered Clouds,200,2013-08-28 21:53:00
5:53 PM,89.1,68.0,50,30.01,10.0,SW,8.1,-,N/A,,Partly Cloudy,220,2013-08-28 22:53:00
6:53 PM,87.1,69.1,55,30.01,10.0,South,4.6,-,N/A,,Partly Cloudy,190,2013-08-28 23:53:00
7:53 PM,82.0,70.0,67,30.01,10.0,South,4.6,-,N/A,,Clear,180,2013-08-29 00:53:00
8:53 PM,81.0,69.1,67,30.02,10.0,South,3.5,-,N/A,,Clear,170,2013-08-29 01:53:00
9:53 PM,80.1,69.1,69,30.03,10.0,SSE,4.6,-,N/A,,Clear,150,2013-08-29 02:53:00
10:53 PM,77.0,69.1,76,30.03,10.0,SSE,4.6,-,N/A,,Clear,150,2013-08-29 03:53:00
11:53 PM,75.9,69.1,79,30.02,10.0,SSE,4.6,-,N/A,,Clear,150,2013-08-29 04:53:00